Location: Marquette
(46.5440°N, 87.3950°W)
Time: 15:47:21
(UTC-04:00)

Daily predictions for brighter satellites

Satellite Brightness Start Highest point End
(mag) Time Altitude Azimuth Time Altitude Azimuth Time Altitude Azimuth
ARGOS 3.5 21:57:53 10° SE 22:03:05 52° ENE 22:08:20 10° N
Cosmos 2322 Rocket 2.3 21:59:23 10° NNW 22:05:01 79° WSW 22:10:37 10° SSE
Cosmos 1939 Rocket 4.3 22:01:33 10° SSW 22:05:25 39° W 22:09:20 10° NNW
NOAA 11 4.4 22:01:35 10° S 22:07:04 76° WSW 22:12:32 10° NNW
Cosmos 2237 Rocket 4.4 22:05:15 10° N 22:07:56 13° NE 22:10:37 10° ENE
Cosmos 1242 Rocket 2.8 22:06:02 10° NNW 22:09:42 70° W 22:13:16 10° S
SL-16 R/B 2.6 22:09:33 10° NNW 22:15:10 63° WSW 22:20:45 10° SSE
Thor Agena Rocket 4.5 22:12:36 10° N 22:17:45 54° WNW 22:22:49 10° SW
Cosmos 2150 Rocket 4.1 22:14:42 10° NNW 22:20:08 85° ENE 22:25:26 10° SSE
Cosmos 1340 Rocket 3.1 22:20:14 10° S 22:24:08 49° E 22:28:06 10° NNE
BREEZE-M R/B 2.3 22:22:20 10° WSW 22:26:26 82° NNW 22:29:02 10° ENE
MetOp-B 4.2 22:24:27 10° SSE 22:29:46 73° ENE 22:35:08 10° N
Cosmos 540 Rocket 4.0 22:25:07 10° S 22:29:50 37° ESE 22:34:35 10° NE
Timation 2 Rocket 4.3 22:28:41 10° SW 22:34:37 68° WNW 22:40:45 10° NNE
Cosmos 1937 Rocket 4.2 22:30:34 10° NNW 22:35:33 51° WSW 22:40:30 10° S
Cosmos 2034 Rocket 4.4 22:30:08 10° SSE 22:35:56 45° E 22:41:46 10° NNE
Cosmos 2237 4.4 22:30:18 10° NNW 22:36:01 63° ENE 22:41:04 13° SE
Meteor 1-13 Rocket 4.4 22:30:38 10° S 22:36:34 90° WNW 22:42:34 10° N
Cosmos 1464 Rocket 4.1 22:32:24 10° S 22:38:42 66° E 22:45:01 10° NNE
Cosmos 1455 Rocket 3.1 22:35:15 10° N 22:39:37 83° W 22:44:01 10° S
Cosmos 1763 Rocket 3.7 22:35:26 10° SSW 22:40:44 77° WNW 22:46:03 10° NNE
SPOT 5 3.3 22:37:55 13° SE 22:41:33 43° ENE 22:45:57 10° N
USA 245 3.6 22:38:32 13° SSE 22:41:42 61° ENE 22:46:20 10° N
Terra 3.2 22:38:20 11° ESE 22:41:53 25° ENE 22:45:44 10° N
Cosmos 841 Rocket 3.5 22:42:00 10° SSW 22:47:15 87° ESE 22:52:35 10° NNE
Meteor 1-15 Rocket 4.3 22:41:52 10° N 22:47:37 68° ENE 22:52:34 14° SSE
Abrixas rocket 2.3 22:47:52 10° W 22:51:05 76° NNW 22:54:19 10° ENE
USA 32 4.3 22:48:16 10° N 22:53:30 69° W 22:58:40 10° S
CZ-2C R/B 4.5 22:50:42 10° NE 22:53:54 15° E 22:56:06 12° ESE
Cosmos 2360 Rocket 2.3 22:48:27 10° NNW 22:54:06 73° WSW 22:58:58 14° SSE
Cosmos 372 Rocket 4.0 22:49:26 10° NNW 22:54:34 70° ENE 22:58:30 17° SSE
Helios 1A 3.1 22:51:27 16° SSE 22:54:37 59° ENE 22:58:44 10° N
Okean 2 4.0 22:52:12 16° SSE 22:55:09 40° E 22:59:04 10° NNE
BREEZE M DEB (TANK) 4.0 22:46:11 10° WNW 22:55:52 42° SW 22:58:38 17° SSE
Cosmos 2219 Rocket 3.0 22:52:08 10° NNW 22:57:25 41° NE 23:01:38 15° ESE
USA 234 3.2 22:51:17 10° NE 22:57:52 79° SE 23:04:27 10° SW
ISS -2.2 22:54:58 10° W 22:58:01 36° N 23:01:06 10° ENE
Tiangong 2 1.5 22:55:42 10° WSW 22:58:41 41° S 23:00:16 23° SE
Cosmos 2333 4.5 22:53:19 10° NNW 22:58:56 60° ENE 23:03:12 18° SE
Shenzhou-11 Module 3.8 22:58:19 10° WSW 23:00:25 18° SSW 23:01:05 17° S
Cosmos 1356 Rocket 3.9 23:05:19 19° SSE 23:08:02 44° E 23:12:08 10° NNE
Cosmos 292 Rocket 4.3 23:05:25 10° SSW 23:10:08 61° WNW 23:14:52 10° NNE
ERS-1 Rocket 3.3 23:07:42 13° S 23:12:10 63° WSW 23:17:10 10° NNW
Helios 1B rocket 2.7 23:12:51 10° NNE 23:16:54 50° E 23:19:16 22° SSE
SJ 16-02 1.6 23:13:02 10° NNW 23:17:26 64° WSW 23:20:27 20° S
CZ-2C R/B 3.8 23:16:09 20° SE 23:19:37 44° ENE 23:24:58 10° N
Iridium 90 3.7 23:19:03 34° SSW 23:19:46 56° W 23:21:54 10° N
Cosmos 2228 4.4 23:20:21 10° NNE 23:23:57 26° ENE 23:25:44 19° ESE
Cosmos 2333 Rocket 2.6 23:18:24 10° NNW 23:24:02 56° ENE 23:27:41 22° SE
SL-16 R/B 4.2 23:21:57 10° N 23:25:55 19° NE 23:29:51 10° E
Cosmos 1536 Rocket 4.3 23:22:37 10° SSW 23:26:58 54° WNW 23:31:22 10° N
COSMOS 2428 2.7 23:21:20 10° NNW 23:27:04 88° ENE 23:30:38 24° SSE
CENTAUR R/B 3.0 23:22:12 10° SW 23:28:17 68° NW 23:35:23 10° NE
Okean 1-7 Rocket 4.1 23:27:08 26° SSE 23:29:14 43° E 23:33:33 10° NNE
SPOT 1/Viking Rocket 3.7 23:26:19 19° S 23:30:01 72° WSW 23:35:12 10° NNW
Meteor 1-29 3.2 23:26:42 10° NNE 23:30:07 51° E 23:31:16 34° SSE
CZ-4C R/B 2.9 23:23:06 10° NW 23:30:14 90° SW 23:35:47 22° SE
IGS 5A 3.4 23:28:32 28° SSE 23:30:42 75° ENE 23:34:51 10° N
Cosmos 1726 Rocket 4.3 23:27:51 10° N 23:32:01 39° ENE 23:33:54 26° SE
H-2A R/B 3.3 23:29:14 10° SSW 23:33:42 33° W 23:38:17 10° NNW
Cosmos 1125 Rocket 3.8 23:29:33 10° NNW 23:34:45 61° WSW 23:38:03 22° S
Cosmos 1980 4.4 23:30:20 10° NNW 23:35:44 44° NE 23:39:12 21° ESE
Lacrosse 5 rocket 2.6 23:32:45 10° WNW 23:36:29 29° SW 23:38:05 22° SSW
ERBS 4.2 23:38:48 10° NW 23:41:41 26° NNE 23:44:10 12° E
Cosmos 1092 Rocket 4.0 23:35:22 10° N 23:41:45 88° ENE 23:45:54 23° S
Nadezhda 4 Rocket 4.3 23:37:00 10° NNW 23:43:14 64° W 23:48:05 18° S
Cosmos 2297 Rocket 3.4 23:44:24 22° ESE 23:45:29 23° ESE 23:49:49 10° NE
Cosmos 1953 4.3 23:44:03 10° NNE 23:46:33 16° ENE 23:47:46 14° E
Cosmos 2227 Rocket 3.2 23:47:43 25° SE 23:49:03 27° ESE 23:53:43 10° NE
Cosmos 2058 Rocket 3.8 23:44:49 10° N 23:49:08 42° ENE 23:50:47 30° ESE
BREEZE-M DEB 4.1 23:49:49 10° WNW 23:52:43 52° SW 23:52:43 52° SW
Cosmos 2237 Rocket 2.6 23:47:46 10° NNW 23:53:22 54° ENE 23:56:28 26° SE
Cosmos 1174 4.0 23:51:05 10° NNW 23:53:59 42° NE 23:54:42 35° E
